[Iaude] MPEC D91: 2024 CO10 [a=1.26,e=0.17,i=6.1,H=23.7]
    mpec at cfa.harvard.edu 
    mpec at cfa.harvard.edu
       
    Tue Feb 20 18:47:46 EST 2024
    
    
  
M.P.E.C. 2024-D91                             Issued 2024 February 20, 23:46 UT
     The Minor Planet Electronic Circulars contain information on unusual
         minor planets, routine data on comets and natural satellites,
         and occasional editorial announcements.  They are published
    on behalf of Division F of the International Astronomical Union by the
          Minor Planet Center, Smithsonian Astrophysical Observatory,
                          Cambridge, MA 02138, U.S.A.
			  
             Prepared using the Tamkin Foundation Computer Network
                              MPC at CFA.HARVARD.EDU
            URL https://www.minorplanetcenter.net/    ISSN 1523-6714
                                   2024 CO10                                    
Observations:
     K24C10O  C2024 01 06.61405810 15 02.851+43 02 13.44         22.18GVED091F51
     K24C10O  C2024 01 06.62690510 15 04.166+43 02 26.96         22.33GVED091F51
     K24C10O  C2024 01 06.65254910 15 06.787+43 02 53.35         22.15GVED091F51
     K24C10O  C2024 01 06.67130210 15 08.764+43 03 13.04         23.36GVED091F52
     K24C10O  C2024 01 06.67909510 15 09.528+43 03 20.26         22.70GVED091F52
     K24C10O  C2024 01 23.46698510 43 59.307+48 27 09.51         19.64GVED091F52
     K24C10O  C2024 01 23.48013210 44 00.014+48 27 25.31         21.91GVED091F52
     K24C10O  C2024 01 23.49321110 44 00.763+48 27 41.37         21.98GVED091F52
     K24C10O  C2024 01 23.50626010 44 01.568+48 27 57.19         22.57GVED091F52
     K24C10O KC2024 01 24.49799610 45 23.791+48 46 55.36         20.35GVED091F52
     K24C10O  C2024 02 09.44834511 00 10.253+53 11 24.63         21.06GVED091F52
     K24C10O  C2024 02 09.45101011 00 10.246+53 11 27.30         20.94GVED091F52
     K24C10O  C2024 02 12.50930211 01 07.589+53 46 11.49         20.47GVED091F52
     K24C10O  C2024 02 12.51196111 01 07.496+53 46 13.20         20.48GVED091F52
     K24C10O  C2024 02 14.44866011 01 29.219+54 03 54.98         20.89GVED091F52
     K24C10O*1C2024 02 15.41858711 01 29.658+54 11 12.91         20.90GVED091G96
     K24C10O 1C2024 02 15.42377511 01 29.500+54 11 14.68         20.76GVED091G96
     K24C10O 1C2024 02 15.42896511 01 29.294+54 11 16.37         21.17GVED091G96
     K24C10O 1C2024 02 15.43415411 01 29.118+54 11 17.88         20.92GVED091G96
     K24C10O  C2024 02 17.52913911 01 28.003+54 24 19.30         21.11GVED091F52
     K24C10O  C2024 02 19.37328411 01 20.818+54 31 21.35         20.96GVED091F51
     K24C10O  C2024 02 19.39929911 01 19.552+54 31 30.67         21.09GVED091F51
     K24C10O  C2024 02 19.41232511 01 18.865+54 31 34.53         21.05GVED091F51
     K24C10O  C2024 02 20.43062311 01 05.577+54 33 47.34         21.23GVED091F51
     K24C10O  C2024 02 20.48975911 01 01.912+54 33 54.69         20.45iXED091F51
     K24C10O  C2024 02 20.49818511 01 01.411+54 33 55.06         21.10iXED091F51
     K24C10O  C2024 02 20.50660511 01 00.897+54 33 55.25         20.41iXED091F51
     K24C10O  C2024 02 20.59988611 00 55.661+54 33 48.36         20.84GVED091F51
     K24C10O  C2024 02 20.60052911 00 55.625+54 33 48.37         20.87GVED091F51
Observer details:
F51 Pan-STARRS 1, Haleakala.  Observers J. Herman, T. Lowe, P. Minguez, A.
    Schultz, I. Smith.  Measurers K. Chambers, T. de Boer, J. Fairlamb, H.
    Gao, M. Huber, C.-C. Lin, E. Magnier, Y. Ramanjooloo, R. Wainscoat, R.
    Weryk.  1.8-m Ritchey-Chretien + CCD.
F52 Pan-STARRS 2, Haleakala.  Observers J. Herman, T. Lowe, P. Minguez, A.
    Schultz, I. Smith.  Measurers K. Chambers, T. de Boer, J. Fairlamb, H.
    Gao, M. Huber, C.-C. Lin, E. Magnier, Y. Ramanjooloo, R. Wainscoat, R.
    Weryk.  1.8-m Ritchey-Chretien + CCD.
G96 Mt. Lemmon Survey.  Observers V. F. Carvajal, J. K. Hogan.  Measurers T.
    Beuden, V. F. Carvajal, D. Fay, J. B. Fazekas, D. C. Fuls, A. R. Gibbs, A.
    D. Grauer, H. Groeller, J. K. Hogan, R. A. Kowalski, S. M. Larson, G. J.
    Leonard, D. Rankin, R. L. Seaman, F. C. Shelly, K. W. Wierzchos.  1.5-m
    reflector + 10K CCD.
Orbital elements:
2024 CO10                                                Earth MOID = 0.0486 AU
Epoch 2024 Mar. 31.0 TT = JDT 2460400.5                 Bell                    
M 359.96559              (2000.0)            P               Q                  
n   0.69966888     Peri.  170.18757     -0.98895737     +0.14441764             
a   1.2566307      Node    18.21729     -0.14216337     -0.86103895             
e   0.1662067      Incl.    6.10905     -0.04186754     -0.48760175             
P   1.41           H   23.76          G   0.15           U   5                  
Residuals in seconds of arc
240106 F51  0.3-  0.2+    240209 F52  0.1-  0.1-    240219 F51  0.0   0.0
240106 F51  0.1-  0.2+    240209 F52  0.1+  0.3+    240219 F51  0.2+  0.1+
240106 F51  0.1-  0.2-    240212 F52  0.2+  0.2-    240219 F51  0.1+  0.2-
240106 F52  0.4+  0.3+    240212 F52  0.0   0.0     240220 F51  0.4+  0.1+
240106 F52  0.2-  0.4-    240214 F52  0.1+  0.2+    240220 F51  0.1-  0.1+
240123 F52  0.7+  0.3+    240215 G96  0.1-  0.1+    240220 F51  0.1+  0.1+
240123 F52  0.1-  0.1-    240215 G96  0.0   0.1+    240220 F51  0.1+  0.0
240123 F52  0.3-  0.0     240215 G96  0.2-  0.1+    240220 F51  0.2+  0.1-
240123 F52  0.2+  0.1+    240215 G96  0.3-  0.0     240220 F51  0.1+  0.0
240124 F52  0.1-  0.3-    240217 F52  0.3-  0.7-
Ephemeris:
2024 CO10                a,e,i = 1.26, 0.17, 6                   q = 1.0478
Date    TT    R. A. (2000) Decl.     Delta      r    Elong.  Phase     V
2024 01 21    10 40 21.9 +47 39 07   0.2002  1.1426   138.9    34.5    22.0
...
2024 02 05    10 57 34.1 +52 08 30   0.1587  1.1095   138.4    36.2    21.5
...
2024 02 13    11 01 14.2 +53 50 26   0.1402  1.0939   137.0    38.0    21.2
...
2024 02 19    11 01 19.9 +54 29 47   0.1276  1.0835   135.8    39.5    21.0
2024 02 20    11 01 09.0 +54 32 25   0.1256  1.0818   135.6    39.7    21.0
2024 02 21    11 00 55.0 +54 33 49   0.1236  1.0802   135.4    40.0    21.0
...
2024 02 27    10 58 32.2 +54 13 16   0.1120  1.0713   134.3    41.4    20.8
...
2024 03 06    10 53 28.6 +52 11 42   0.09753 1.0615   133.4    42.8    20.5
...
2024 03 21    10 45 33.4 +41 12 36   0.07425 1.0500   135.1    42.0    19.9
M. P. C. Staff               (C) Copyright 2024 MPC           M.P.E.C. 2024-D91
    
    
More information about the Iaude
mailing list